Location: Kitchener-Waterloo
(43.4500°N, 80.5000°W)
Time: 20:57:21
(UTC-04:00)

Daily predictions for brighter satellites

Satellite Brightness Start Highest point End
(mag) Time Altitude Azimuth Time Altitude Azimuth Time Altitude Azimuth
USA 234 3.5 20:36:49 10° ESE 20:43:15 64° NE 20:49:43 10° NW
Intercosmos 25 Rocket 4.5 20:45:05 10° SE 20:47:35 21° E 20:50:30 10° NE
Cosmos 1825 3.3 20:45:09 10° NNE 20:48:24 26° ENE 20:51:38 10° SE
CZ-2D R/B 3.3 20:46:44 10° SSE 20:50:37 86° E 20:54:32 10° NNW
Cosmos 1331 Rocket 4.5 20:45:51 10° SSW 20:51:08 70° WNW 20:56:27 10° NNE
Nadezhda 4 Rocket 4.2 20:46:53 10° N 20:53:09 79° W 20:59:26 10° S
SL-16 R/B 2.8 20:50:08 10° SSE 20:55:10 34° ESE 21:00:15 10° NE
ATLAS 5 CENTAUR R/B 3.5 20:55:30 10° NNW 21:00:34 30° NE 21:06:02 10° E
Cosmos 1862 4.4 20:57:49 10° NNE 21:01:17 27° ENE 21:04:33 11° SE
Cosmos 1634 Rocket 4.0 20:56:32 10° S 21:02:45 65° E 21:09:00 10° NNE
Cosmos 1092 Rocket 4.1 20:56:32 10° N 21:02:54 89° E 21:09:16 10° S
Helios 1B rocket 2.6 20:59:55 10° NNE 21:03:54 48° E 21:07:52 10° S
Cosmos 1707 Rocket 3.6 21:00:22 10° S 21:04:49 88° E 21:09:16 10° N
Lacrosse 4 Rocket 1.9 21:00:43 10° NNW 21:04:54 48° ENE 21:08:46 12° SE
ERS-1 Rocket 4.0 21:02:09 10° SE 21:06:22 29° ENE 21:10:40 10° N
USA 186 1.6 21:04:02 10° S 21:06:42 74° WSW 21:09:36 10° NNW
Cosmos 1655 Rocket 4.3 21:02:37 10° N 21:08:49 49° ENE 21:14:57 10° SSE
ERBS 2.3 21:06:21 10° NW 21:09:50 84° SW 21:12:44 14° SE
Cosmos 1733 Rocket 3.7 21:06:14 10° N 21:10:24 38° ENE 21:14:14 12° SE
ALOS 4.4 21:06:42 10° SSW 21:10:41 28° W 21:14:42 10° NW
Meteor 2-20 Rocket 4.5 21:04:51 10° N 21:10:57 65° E 21:17:01 10° SSE
Cosmos 1486 Rocket 4.4 21:07:00 10° NNW 21:12:12 67° WSW 21:17:23 10° S
SAR-Lupe-4 3.5 21:08:46 10° SSE 21:12:20 75° ENE 21:15:57 10° N
Cosmos 1939 Rocket 3.2 21:08:38 10° SSE 21:12:34 50° ENE 21:16:28 10° N
CENTAUR R/B 3.8 21:07:19 10° WSW 21:13:14 46° NW 21:20:00 10° NNE
Cosmos 1862 Rocket 4.2 21:13:55 10° SSE 21:18:00 36° E 21:22:05 10° NNE
SeaSat 1 3.8 21:17:14 13° E 21:20:38 25° NE 21:24:37 10° N
Cosmos 1408 2.5 21:20:17 10° N 21:24:00 75° E 21:27:28 11° SSE
Cosmos 1992 Rocket 4.3 21:19:47 10° S 21:24:43 44° ESE 21:29:42 10° NNE
Atlas Centaur 2 4.0 21:22:37 10° SSW 21:28:00 22° SSE 21:31:32 17° SE
SAR-Lupe-1 4.2 21:26:16 10° S 21:29:50 77° WSW 21:33:27 10° NNW
Molniya-1 4.2 21:30:08 10° WSW 21:31:50 37° NW 21:34:08 10° NNE
Abrixas rocket 2.8 21:29:13 10° W 21:32:28 56° NNW 21:35:42 10° ENE
Cosmos 2242 Rocket 3.6 21:31:51 10° S 21:36:22 88° W 21:40:53 10° N
Cosmos 1455 4.4 21:34:34 10° SW 21:37:52 28° WNW 21:41:10 10° NNW
Helios 1A 3.9 21:37:44 10° S 21:41:49 48° W 21:45:57 10° NNW
Cosmos 1503 Rocket 4.3 21:38:21 10° NNW 21:43:35 69° WSW 21:48:10 13° S
Cosmos 2279 Rocket 3.9 21:37:45 10° S 21:43:59 80° E 21:50:14 10° N
Cosmos 1354 Rocket 4.4 21:42:19 10° NNW 21:47:33 63° WSW 21:52:09 13° S
Cosmos 1867 4.2 21:44:00 10° NNW 21:49:14 44° NE 21:52:05 24° ESE
MetOp-A 4.4 21:47:17 23° SE 21:50:24 53° ENE 21:55:36 10° N
Resurs 01 Rocket 4.3 21:50:40 10° SW 21:53:39 18° W 21:56:39 10° NW
H-2A R/B 3.2 21:52:49 22° E 21:54:27 26° ENE 21:58:29 10° N
OAO 3 Rocket 4.2 21:51:07 10° WSW 21:55:26 31° S 21:56:38 27° SSE
CZ-4B DEB 4.4 21:54:21 11° SSW 21:56:53 29° W 21:59:36 10° NW
YAOGAN 6 2.6 21:56:56 27° S 21:58:50 78° WSW 22:02:28 10° NNW
Cosmos 1428 Rocket 4.5 21:53:27 10° N 21:59:35 82° W 22:04:53 14° S
Meteor 1-29 4.4 21:57:07 10° N 22:00:23 38° WNW 22:03:37 10° SW
Cosmos 968 Rocket 3.6 21:59:35 10° NNW 22:04:43 58° ENE 22:06:50 34° SE
Cosmos 2263 Rocket 2.2 21:59:40 10° NNW 22:05:16 80° WSW 22:08:25 27° SSE
SPOT 5 3.1 22:04:10 33° SE 22:06:01 53° ENE 22:10:35 10° N
COSMOS 2428 3.8 22:10:12 25° E 22:10:12 25° E 22:14:11 10° NE
Meteor 2-10 Rocket 3.7 22:05:36 14° S 22:10:36 75° E 22:16:24 10° NNE
Cosmos 2322 Rocket 2.8 22:05:46 10° SW 22:11:17 59° WNW 22:16:52 10° NNE
Envisat 4.4 22:06:45 10° SSW 22:11:23 36° W 22:16:04 10° NNW
Sich 1 Rocket 3.5 22:10:28 10° N 22:14:57 82° E 22:16:31 41° SSE
Cosmos 1933 4.0 22:11:30 11° SSW 22:15:19 55° W 22:19:18 10° N
Cosmos 2360 Rocket 2.1 22:15:59 10° SSW 22:21:35 70° ESE 22:27:14 10° NNE
BREEZE-M DEB (TANK) 4.2 22:20:02 10° W 22:23:54 71° N 22:37:14 10° E
H-2A R/B 3.2 22:23:59 27° ENE 22:24:02 27° ENE 22:27:42 10° N
USA 234 4.0 22:22:53 23° S 22:26:26 42° SW 22:32:35 10° WNW
Cosmos 1908 Rocket 3.6 22:23:11 10° NNW 22:27:31 73° W 22:28:49 44° SSW
Meteor 1-20 Rocket 4.4 22:23:23 10° N 22:28:50 53° ENE 22:30:09 43° ESE
Cosmos 2322 3.6 22:25:27 20° S 22:29:27 69° ESE 22:35:09 10° NNE
NOAA 11 4.3 22:28:04 31° S 22:30:44 73° WSW 22:36:15 10° NNW
USA 245 4.2 22:30:44 37° SSE 22:33:11 89° W 22:38:22 10° NNW
SL-16 R/B 3.7 22:33:58 10° SW 22:39:12 38° WNW 22:44:29 10° N
Cosmos 1782 Rocket 3.4 22:37:12 10° N 22:41:35 88° WSW 22:41:59 73° S
SPOT 1/Viking Rocket 3.5 22:40:22 54° SSE 22:41:35 82° ENE 22:46:51 10° NNW
Lacrosse 4 Rocket 3.7 22:40:19 10° WNW 22:43:16 18° WSW 22:45:08 14° SW
Okean 2 Rocket 3.0 22:40:20 10° N 22:44:52 72° E 22:44:59 71° E
ERS-1 Rocket 4.2 22:42:09 20° SSW 22:45:02 35° W 22:49:39 10° NNW
ATLAS 5 CENTAUR R/B 2.5 22:39:47 10° NW 22:45:46 69° WSW 22:47:45 45° S
Cosmos 2333 Rocket 3.8 22:52:12 20° ENE 22:52:12 20° ENE 22:54:38 10° NE
Cosmos 2333 4.5 22:51:47 48° E 22:51:47 48° E 22:56:56 10° NE
Cosmos 1782 3.8 22:53:34 38° NE 22:53:34 38° NE 22:56:16 10° NNE
Milstar 3 4.3 22:49:31 10° WSW 22:53:09 17° SSW 22:53:09 17° SSW
Landsat 7 3.7 22:54:28 71° E 22:54:36 71° ENE 22:59:22 10° N
ARGOS 3.5 22:52:58 41° SSW 22:54:40 59° W 22:59:59 10° NNW
Cosmos 2237 Rocket 4.1 22:59:46 15° ENE 22:59:46 15° ENE 23:01:13 10° NE
SeaSat 1 2.8 22:57:02 47° SSW 22:57:52 53° WSW 23:02:43 10° NW
Cosmos 2278 Rocket 3.3 22:54:19 10° N 22:59:16 30° NE 23:00:07 28° ENE
Cosmos 1777 Rocket 3.9 23:01:00 10° NNW 23:06:18 83° WSW 23:06:40 76° SSW
Okean 1-7 3.5 23:07:56 56° W 23:08:12 57° W 23:12:34 10° N
Cosmos 1844 Rocket 2.5 23:03:05 10° NNW 23:08:41 75° ENE 23:09:04 72° ESE
NOSS 3-1 (C) 4.3 23:11:31 33° ENE 23:11:31 33° ENE 23:15:27 10° NE
Abrixas rocket 4.4 23:06:38 10° WNW 23:08:38 26° NW 23:08:38 26° NW
Terra 1.9 23:10:04 67° NE 23:10:04 67° NE 23:14:29 10° N
SL-08 RB Rocket 4.4 23:09:48 44° WSW 23:10:15 45° W 23:14:40 10° NNW
deb Chang Zheng 4 4.4 23:07:45 10° NNE 23:10:48 42° NE 23:10:48 42° NE
Meteor 1-27 Rocket 4.2 23:12:59 44° ENE 23:12:59 44° ENE 23:17:37 10° NNE
USA 229 DEB 3.7 23:05:53 10° SW 23:12:44 83° NW 23:19:44 10° NE
USA 229 3.7 23:05:58 10° SW 23:12:49 84° NW 23:19:49 10° NE
Atlas Centaur 2 4.0 23:09:54 10° SW 23:14:12 27° SSW 23:14:12 27° SSW
Cosmos 2151 Rocket 4.1 23:13:51 10° N 23:17:24 55° N 23:17:24 55° N
Iridium 4 Rocket 4.5 23:19:05 10° N 23:21:27 29° NNE 23:21:27 29° NNE
SL-19 R/B 4.2 23:17:39 10° NNE 23:23:49 81° ESE 23:24:12 77° SSE
Cosmos 2219 Rocket 2.6 23:28:38 49° ENE 23:28:38 49° ENE 23:32:53 10° NNE
CZ-4C R/B 3.3 23:23:20 10° NNW 23:30:08 51° NE 23:32:09 41° E
Meteor 1-10 Rocket 4.4 23:29:38 64° SW 23:30:26 75° W 23:36:20 10° N
DMSP B5D2-2 4.1 23:25:45 10° N 23:31:01 74° WNW 23:31:12 73° W
CARTOSAT-1 4.4 23:32:34 50° NW 23:32:34 50° NW 23:35:54 10° NNW
Meteor 1-11 Rocket 3.7 23:27:58 10° N 23:33:08 71° NE 23:33:08 71° NE
H-2A R/B 2.8 23:33:27 40° WSW 23:33:41 40° W 23:38:21 10° NNW
ASTEX 1 3.9 23:43:30 57° WNW 23:43:30 57° WNW 23:47:58 10° NNW
Okean 1 Rocket 4.4 23:40:20 10° N 23:43:04 34° NNE 23:43:04 34° NNE
Cosmos 1553 Rocket 3.9 23:48:00 79° SW 23:48:17 82° W 23:54:34 10° N
SL-08 R/B 4.4 23:46:49 10° NNW 23:52:57 72° W 23:53:02 71° W
COSMOS 2428 3.4 23:52:07 41° W 23:53:31 50° WNW 23:59:05 10° NNE
